Starlink 5697

operational
NORAD ID: 55589 Int'l Des: 2023-020 Owner: SPXS Country: US Constellation: starlink
LEOCIRCULAR

Über Starlink 5697

Beschreibung wird geladen...

Live-Position

3D-Globus wird geladen...

Nächste Überflüge

Höhenverlauf

Altitude vs Time

uPlot chart will show altitude changes over time

Zweizeiliger Elementsatz

1 55589U 23020W 26035.66947697 .00000076 00000-0 20716-4 0 9992
2 55589 43.0027 183.9399 0001361 270.3352 89.7334 15.02536106163952
Epoch: 4. Feb. 2026 • Age: 10 hours

Aktueller Status

Höhe 559.1 km
Geschwindigkeit 7.58 km/s
Subsatellitenpunkt -2.06°S, 19.95°E
Startdatum 12. Feb. 2023
Alter 2.9 years
Typ internet

Technische Details

Klassifizierung Payload
Masse 305.00 kg
Trockenmasse 290.00 kg
Gesamtmasse 305.00 kg
Länge 0.20 m
Durchmesser 2.80 m
Spannweite 9.00 m
Form Box + pan
Hersteller SPXS
Bus-Typ Starlink
Phasenstatus In Orbit
Besitzer/Staat SPXS/US

Große Konstellationen

Loading constellations...